Time,TemperatureF,DewpointF,PressureIn,WindDirection,WindDirectionDegrees,WindSpeedMPH,WindSpeedGustMPH,Humidity,HourlyPrecipIn,Conditions,Clouds,dailyrainin,SoftwareType,DateUTC
2013-07-06 00:00:00,70.6,70.6,30.27,SSW,194,0.0,1.0,100,0.00,RA,,0.00,WeatherDisplay:10.37,2013-07-06 04:00:00,
2013-07-06 00:15:00,70.7,70.7,30.26,South,177,0.0,3.0,100,0.00,CLR,,0.00,WeatherDisplay:10.37,2013-07-06 04:15:00,
2013-07-06 00:30:00,70.8,70.8,30.27,SSE,150,1.0,5.0,100,0.00,CLR,,0.00,WeatherDisplay:10.37,2013-07-06 04:30:00,
2013-07-06 00:45:00,70.7,70.7,30.26,South,177,0.0,3.0,100,0.00,CLR,,0.00,WeatherDisplay:10.37,2013-07-06 04:45:00,
2013-07-06 01:00:00,70.5,70.5,30.26,SE,135,0.0,3.0,100,0.00,BKN,,0.00,WeatherDisplay:10.37,2013-07-06 05:00:00,
2013-07-06 01:15:00,70.5,70.5,30.26,South,174,0.0,3.0,100,0.00,BKN,,0.00,WeatherDisplay:10.37,2013-07-06 05:15:00,
2013-07-06 01:30:00,70.4,70.4,30.26,South,176,0.0,3.0,100,0.00,BKN,,0.00,WeatherDisplay:10.37,2013-07-06 05:30:00,
2013-07-06 01:45:00,70.2,70.2,30.25,South,176,0.0,3.0,100,0.00,BKN,,0.00,WeatherDisplay:10.37,2013-07-06 05:45:00,
2013-07-06 02:00:00,70.0,70.0,30.25,South,176,0.0,2.0,100,0.00,SCT,,0.00,WeatherDisplay:10.37,2013-07-06 06:00:00,
2013-07-06 02:15:00,69.8,69.8,30.25,South,176,0.0,1.0,100,0.00,SCT,,0.00,WeatherDisplay:10.37,2013-07-06 06:15:00,
2013-07-06 02:30:00,69.5,69.5,30.25,South,176,0.0,0.0,100,0.00,BKN,,0.00,WeatherDisplay:10.37,2013-07-06 06:30:00,
2013-07-06 02:45:00,69.2,69.2,30.25,South,176,0.0,1.0,100,0.00,BKN,,0.00,WeatherDisplay:10.37,2013-07-06 06:45:00,
2013-07-06 03:00:00,68.9,68.9,30.25,South,176,0.0,0.0,100,0.00,SCT,,0.00,WeatherDisplay:10.37,2013-07-06 07:00:00,
2013-07-06 03:15:00,68.7,68.7,30.25,South,176,0.0,0.0,100,0.00,SCT,,0.00,WeatherDisplay:10.37,2013-07-06 07:15:00,
2013-07-06 03:30:00,68.5,68.5,30.25,South,176,0.0,0.0,100,0.00,BKN,,0.00,WeatherDisplay:10.37,2013-07-06 07:30:00,
2013-07-06 03:45:00,68.2,68.2,30.25,South,176,0.0,0.0,100,0.00,BKN,,0.00,WeatherDisplay:10.37,2013-07-06 07:45:00,
2013-07-06 04:00:00,68.3,68.3,30.25,South,176,0.0,0.0,100,0.00,BKN,,0.00,WeatherDisplay:10.37,2013-07-06 08:00:00,
2013-07-06 04:15:00,68.8,68.8,30.25,South,176,0.0,0.0,100,0.01,RA,,0.01,WeatherDisplay:10.37,2013-07-06 08:15:00,
2013-07-06 04:30:00,69.0,69.0,30.25,South,176,0.0,0.0,100,0.00,SCT,,0.01,WeatherDisplay:10.37,2013-07-06 08:30:00,
2013-07-06 04:45:00,69.2,69.2,30.25,South,176,0.0,0.0,100,0.00,SCT,,0.01,WeatherDisplay:10.37,2013-07-06 08:45:00,
2013-07-06 05:00:00,69.2,69.2,30.25,South,176,0.0,0.0,100,0.00,BKN,,0.01,WeatherDisplay:10.37,2013-07-06 09:00:00,
2013-07-06 05:15:00,69.2,69.2,30.25,South,176,0.0,1.0,100,0.00,BKN,,0.01,WeatherDisplay:10.37,2013-07-06 09:15:00,
2013-07-06 05:30:00,69.2,69.2,30.25,South,176,0.0,0.0,100,0.00,OVC,,0.01,WeatherDisplay:10.37,2013-07-06 09:30:00,
2013-07-06 05:45:00,69.1,69.1,30.26,South,176,0.0,1.0,100,0.00,OVC,,0.01,WeatherDisplay:10.37,2013-07-06 09:45:00,
2013-07-06 06:00:00,69.1,69.1,30.26,South,176,0.0,1.0,100,0.00,OVC,,0.01,WeatherDisplay:10.37,2013-07-06 10:00:00,
2013-07-06 06:15:00,69.2,69.2,30.27,South,177,0.0,2.0,100,0.00,OVC,,0.01,WeatherDisplay:10.37,2013-07-06 10:15:00,
2013-07-06 06:30:00,69.3,69.3,30.27,South,177,0.0,1.0,100,0.00,OVC,,0.01,WeatherDisplay:10.37,2013-07-06 10:30:00,
2013-07-06 06:45:00,69.4,69.4,30.27,South,177,0.0,2.0,100,0.00,OVC,,0.01,WeatherDisplay:10.37,2013-07-06 10:45:00,
2013-07-06 07:00:00,69.6,69.6,30.27,South,177,0.0,1.0,100,0.00,OVC,,0.01,WeatherDisplay:10.37,2013-07-06 11:00:00,
2013-07-06 07:15:00,69.7,69.7,30.28,South,176,0.0,2.0,100,0.00,OVC,,0.01,WeatherDisplay:10.37,2013-07-06 11:15:00,
2013-07-06 07:30:00,69.9,69.9,30.28,SSE,167,1.0,3.0,100,0.00,OVC,,0.01,WeatherDisplay:10.37,2013-07-06 11:30:00,
2013-07-06 07:45:00,70.1,70.1,30.28,SSE,162,1.0,4.0,100,0.00,OVC,,0.01,WeatherDisplay:10.37,2013-07-06 11:45:00,
2013-07-06 08:00:00,70.6,70.6,30.28,SSE,167,1.0,4.0,100,0.00,OVC,,0.01,WeatherDisplay:10.37,2013-07-06 12:00:00,
2013-07-06 08:15:00,70.9,70.9,30.28,SSE,157,0.0,4.0,100,0.00,OVC,,0.01,WeatherDisplay:10.37,2013-07-06 12:15:00,
2013-07-06 08:30:00,71.6,71.6,30.28,SE,124,0.0,4.0,100,0.00,OVC,,0.01,WeatherDisplay:10.37,2013-07-06 12:30:00,
2013-07-06 08:45:00,72.3,72.3,30.29,SE,136,1.0,4.0,100,0.00,OVC,,0.01,WeatherDisplay:10.37,2013-07-06 12:45:00,
2013-07-06 09:00:00,72.9,72.3,30.29,SE,137,0.0,3.0,98,0.00,OVC,,0.01,WeatherDisplay:10.37,2013-07-06 13:00:00,
2013-07-06 09:15:00,74.3,73.1,30.29,South,175,1.0,6.0,96,0.00,OVC,,0.01,WeatherDisplay:10.37,2013-07-06 13:15:00,
2013-07-06 09:30:00,75.2,72.7,30.29,South,189,0.0,4.0,92,0.00,OVC,,0.01,WeatherDisplay:10.37,2013-07-06 13:30:00,
2013-07-06 09:45:00,76.3,73.4,30.29,SSE,149,0.0,5.0,91,0.00,OVC,,0.01,WeatherDisplay:10.37,2013-07-06 13:45:00,
2013-07-06 10:00:00,77.9,73.4,30.28,SSW,200,1.0,6.0,86,0.00,OVC,,0.01,WeatherDisplay:10.37,2013-07-06 14:00:00,
2013-07-06 10:15:00,79.0,73.4,30.28,SW,233,1.0,6.0,83,0.00,OVC,,0.01,WeatherDisplay:10.37,2013-07-06 14:15:00,
2013-07-06 10:30:00,77.9,72.3,30.29,WSW,249,1.0,6.0,83,0.00,BKN,,0.01,WeatherDisplay:10.37,2013-07-06 14:30:00,
2013-07-06 10:45:00,76.8,71.6,30.29,WSW,248,1.0,3.0,84,0.00,BKN,,0.01,WeatherDisplay:10.37,2013-07-06 14:45:00,
2013-07-06 11:00:00,78.4,73.5,30.29,SW,216,1.0,5.0,85,0.00,BKN,,0.01,WeatherDisplay:10.37,2013-07-06 15:00:00,
2013-07-06 11:15:00,80.4,73.3,30.28,SSE,166,3.0,7.0,79,0.00,BKN,,0.01,WeatherDisplay:10.37,2013-07-06 15:15:00,
2013-07-06 11:30:00,82.1,74.6,30.28,South,172,1.0,7.0,78,0.00,OVC,,0.01,WeatherDisplay:10.37,2013-07-06 15:30:00,
2013-07-06 11:45:00,82.0,73.3,30.28,WSW,241,1.0,7.0,75,0.00,OVC,,0.01,WeatherDisplay:10.37,2013-07-06 15:45:00,
2013-07-06 12:00:00,81.7,73.8,30.28,SW,233,3.0,5.0,77,0.00,BKN,,0.01,WeatherDisplay:10.37,2013-07-06 16:00:00,
2013-07-06 12:15:00,83.3,74.1,30.28,SE,128,1.0,6.0,74,0.00,BKN,,0.01,WeatherDisplay:10.37,2013-07-06 16:15:00,
2013-07-06 12:30:00,84.2,73.4,30.27,ESE,102,2.0,9.0,70,0.00,SCT,,0.01,WeatherDisplay:10.37,2013-07-06 16:30:00,
2013-07-06 12:45:00,83.8,73.4,30.27,South,181,1.0,10.0,71,0.00,SCT,,0.01,WeatherDisplay:10.37,2013-07-06 16:45:00,
2013-07-06 13:00:00,84.0,74.0,30.26,East,85,2.0,6.0,72,0.00,SCT,,0.01,WeatherDisplay:10.37,2013-07-06 17:00:00,
2013-07-06 13:15:00,84.5,74.1,30.25,ENE,78,0.0,6.0,71,0.00,SCT,,0.01,WeatherDisplay:10.37,2013-07-06 17:15:00,
2013-07-06 13:30:00,84.5,72.8,30.25,ENE,71,2.0,6.0,68,0.00,BKN,,0.01,WeatherDisplay:10.37,2013-07-06 17:30:00,
2013-07-06 13:45:00,84.2,73.8,30.24,ESE,107,0.0,6.0,71,0.00,BKN,,0.01,WeatherDisplay:10.37,2013-07-06 17:45:00,
2013-07-06 14:00:00,84.6,72.9,30.24,SE,127,0.0,5.0,68,0.00,BKN,,0.01,WeatherDisplay:10.37,2013-07-06 18:00:00,
2013-07-06 14:15:00,85.5,73.3,30.23,SSW,201,1.0,9.0,67,0.00,BKN,,0.01,WeatherDisplay:10.37,2013-07-06 18:15:00,
2013-07-06 14:30:00,86.1,73.9,30.23,ESE,116,1.0,9.0,67,0.00,SCT,,0.01,WeatherDisplay:10.37,2013-07-06 18:30:00,
2013-07-06 14:45:00,85.3,72.6,30.23,SE,133,1.0,8.0,66,0.00,SCT,,0.01,WeatherDisplay:10.37,2013-07-06 18:45:00,
2013-07-06 15:00:00,85.0,72.4,30.22,SSE,168,2.0,6.0,66,0.00,SCT,,0.01,WeatherDisplay:10.37,2013-07-06 19:00:00,
2013-07-06 15:15:00,86.2,73.5,30.22,South,180,2.0,9.0,66,0.00,SCT,,0.01,WeatherDisplay:10.37,2013-07-06 19:15:00,
2013-07-06 15:30:00,85.6,73.0,30.21,East,99,1.0,8.0,66,0.00,BKN,,0.01,WeatherDisplay:10.37,2013-07-06 19:30:00,
2013-07-06 15:45:00,85.4,72.7,30.21,SW,217,2.0,7.0,66,0.00,BKN,,0.01,WeatherDisplay:10.37,2013-07-06 19:45:00,
2013-07-06 16:00:00,85.2,73.9,30.20,ESE,111,0.0,7.0,69,0.00,BKN,,0.01,WeatherDisplay:10.37,2013-07-06 20:00:00,
2013-07-06 16:15:00,85.3,73.5,30.19,South,180,0.0,4.0,68,0.00,BKN,,0.01,WeatherDisplay:10.37,2013-07-06 20:15:00,
2013-07-06 16:30:00,84.8,73.5,30.19,SE,131,0.0,4.0,69,0.00,OVC,,0.01,WeatherDisplay:10.37,2013-07-06 20:30:00,
2013-07-06 16:45:00,83.5,73.1,30.19,South,182,0.0,4.0,71,0.00,OVC,,0.01,WeatherDisplay:10.37,2013-07-06 20:45:00,
2013-07-06 17:00:00,83.3,73.3,30.19,SSW,204,1.0,6.0,72,0.00,OVC,,0.01,WeatherDisplay:10.37,2013-07-06 21:00:00,
2013-07-06 17:15:00,82.9,73.8,30.18,WSW,257,1.0,6.0,74,0.00,OVC,,0.01,WeatherDisplay:10.37,2013-07-06 21:15:00,
2013-07-06 17:30:00,81.4,73.8,30.17,West,265,1.0,4.0,78,0.00,OVC,,0.01,WeatherDisplay:10.37,2013-07-06 21:30:00,
2013-07-06 17:45:00,81.3,73.4,30.17,NW,311,0.0,5.0,77,0.00,OVC,,0.01,WeatherDisplay:10.37,2013-07-06 21:45:00,
2013-07-06 18:00:00,81.7,73.0,30.16,NW,312,0.0,3.0,75,0.00,OVC,,0.01,WeatherDisplay:10.37,2013-07-06 22:00:00,
2013-07-06 18:15:00,82.2,73.5,30.17,NW,312,0.0,4.0,75,0.00,OVC,,0.01,WeatherDisplay:10.37,2013-07-06 22:15:00,
2013-07-06 18:30:00,82.6,74.2,30.16,WNW,290,2.0,4.0,76,0.00,BKN,,0.01,WeatherDisplay:10.37,2013-07-06 22:30:00,
2013-07-06 18:45:00,82.2,73.9,30.18,WSW,255,6.0,12.0,76,0.00,BKN,,0.01,WeatherDisplay:10.37,2013-07-06 22:45:00,
2013-07-06 19:00:00,76.2,71.4,30.18,NE,46,0.0,15.0,85,0.29,RA,,0.30,WeatherDisplay:10.37,2013-07-06 23:00:00,
2013-07-06 19:15:00,73.6,71.1,30.18,NE,43,0.0,2.0,92,0.00,BKN,,0.30,WeatherDisplay:10.37,2013-07-06 23:15:00,
2013-07-06 19:30:00,73.5,72.0,30.19,NE,43,0.0,1.0,95,0.00,OVC,,0.30,WeatherDisplay:10.37,2013-07-06 23:30:00,
2013-07-06 19:45:00,73.8,72.9,30.18,NE,43,0.0,1.0,97,0.00,OVC,,0.30,WeatherDisplay:10.37,2013-07-06 23:45:00,
2013-07-06 20:00:00,73.9,72.7,30.19,East,96,1.0,4.0,96,0.00,-RA,,0.30,WeatherDisplay:10.37,2013-07-07 00:00:00,
2013-07-06 20:15:00,73.3,72.4,30.20,SW,222,0.0,8.0,97,0.00,-RA,,0.30,WeatherDisplay:10.37,2013-07-07 00:15:00,
2013-07-06 20:30:00,73.0,72.4,30.19,SW,236,0.0,3.0,98,0.01,BKN,,0.31,WeatherDisplay:10.37,2013-07-07 00:30:00,
2013-07-06 20:45:00,72.9,72.3,30.20,WSW,238,0.0,1.0,98,0.00,BKN,,0.31,WeatherDisplay:10.37,2013-07-07 00:45:00,
2013-07-06 21:00:00,72.9,72.3,30.20,WSW,237,0.0,2.0,98,0.00,BKN,,0.31,WeatherDisplay:10.37,2013-07-07 01:00:00,
2013-07-06 21:15:00,72.5,71.9,30.21,WSW,237,0.0,1.0,98,0.00,BKN,,0.31,WeatherDisplay:10.37,2013-07-07 01:15:00,
2013-07-06 21:45:00,72.3,72.0,30.23,WSW,237,0.0,0.0,99,0.00,-RA,,0.31,WeatherDisplay:10.37,2013-07-07 01:45:00,
2013-07-06 22:00:00,72.4,72.1,30.22,WSW,237,0.0,0.0,99,0.00,-RA,,0.31,WeatherDisplay:10.37,2013-07-07 02:00:00,
2013-07-06 22:15:00,72.3,72.0,30.23,WSW,237,0.0,0.0,99,0.00,-RA,,0.31,WeatherDisplay:10.37,2013-07-07 02:15:00,
2013-07-06 22:30:00,72.3,72.3,30.24,WSW,237,0.0,1.0,100,0.00,OVC,,0.31,WeatherDisplay:10.37,2013-07-07 02:30:00,
2013-07-06 23:00:00,72.3,72.3,30.23,WSW,237,0.0,3.0,100,0.00,BKN,,0.31,WeatherDisplay:10.37,2013-07-07 03:00:00,
2013-07-06 23:15:00,72.2,72.2,30.24,WSW,237,0.0,0.0,100,0.00,BKN,,0.31,WeatherDisplay:10.37,2013-07-07 03:15:00,
2013-07-06 23:30:00,72.1,72.1,30.23,WSW,237,0.0,2.0,100,0.00,BKN,,0.31,WeatherDisplay:10.37,2013-07-07 03:30:00,